This is the latest recevied weather packets stored in our database for station/object N2ZVN. If no packets are shown the sender has not sent any weather packets the latest 10 day(s).
| Time | Temp. | Humidity | Pressure | Rain* | Wind** | Luminosity | Snow |
|---|---|---|---|---|---|---|---|
| 1777903079 | 16.67° C | 43% | 1006.3 hPa | 0 mm | - | 558 W/m² | - |
| 1777902775 | 16.67° C | 44% | 1006.1 hPa | 0 mm | - | 536 W/m² | - |
| 1777902473 | 16.67° C | 43% | 1006.5 hPa | 0 mm | - | 529 W/m² | - |
| 1777902169 | 16.11° C | 45% | 1006.3 hPa | 0 mm | - | 515 W/m² | - |
| 1777901868 | 16.11° C | 44% | 1006.6 hPa | 0 mm | - | 508 W/m² | - |
| 1777901564 | 16.11° C | 44% | 1006.7 hPa | 0 mm | - | 497 W/m² | - |
| 1777901262 | 16.11° C | 43% | 1006.6 hPa | 0 mm | - | 479 W/m² | - |
| 1777900959 | 16.11° C | 43% | 1006.4 hPa | 0 mm | - | 463 W/m² | - |
| 1777900657 | 16.11° C | 44% | 1006.7 hPa | 0 mm | - | 441 W/m² | - |
| 1777900354 | 16.11° C | 45% | 1006.7 hPa | 0 mm | - | 421 W/m² | - |
| 1777900051 | 15.56° C | 45% | 1006.8 hPa | 0 mm | - | 410 W/m² | - |
| 1777899746 | 15.56° C | 46% | 1006.9 hPa | 0 mm | - | 382 W/m² | - |
| 1777899444 | 15.56° C | 45% | 1007 hPa | 0 mm | - | 352 W/m² | - |
| 1777899142 | 15.56° C | 45% | 1006.9 hPa | 0 mm | - | 352 W/m² | - |
| 1777898839 | 15° C | 46% | 1006.9 hPa | 0 mm | - | 326 W/m² | - |
| 1777898536 | 15° C | 45% | 1006.9 hPa | 0 mm | - | 312 W/m² | - |
| 1777898234 | 15° C | 46% | 1006.9 hPa | 0 mm | - | 297 W/m² | - |
| 1777897931 | 15° C | 45% | 1007.2 hPa | 0 mm | - | 258 W/m² | - |
| 1777897627 | 15° C | 45% | 1007 hPa | 0 mm | - | 258 W/m² | - |
| 1777897322 | 14.44° C | 47% | 1007.1 hPa | 0 mm | - | 229 W/m² | - |
| 1777897019 | 14.44° C | 47% | 1007.1 hPa | 0 mm | - | 229 W/m² | - |
| 1777896716 | 13.89° C | 47% | 1007.1 hPa | 0 mm | - | 207 W/m² | - |
| 1777896413 | 13.89° C | 48% | 1007.1 hPa | 0 mm | - | 73 W/m² | - |
| 1777896110 | 13.89° C | 48% | 1007 hPa | 0 mm | - | 73 W/m² | - |
| 1777895808 | 13.89° C | 48% | 1006.8 hPa | 0 mm | - | 157 W/m² | - |
* Rain latest hour (hover to see other rain measurements)
** Current wind speed in m/s (hover to see current wind gust speed)